View from above orbital plane
|
View from above satellite
|
Ground track
|
The orbit data is extracted from the following two-line orbital elements,
1 46087U 20055BN 21103.46918393 .00011975 00000-0 12885-3 0 9997
2 46087 53.0056 154.2924 0012835 17.9211 342.2252 15.64152034 43528
Epoch (UTC): | 13 April 2021 11:15:37 |
Eccentricity: | 0.0012835 |
inclination: | 53.0056° |
perigee height: | 367 km |
apogee height: | 384 km |
right ascension of ascending node: | 154.2924° |
argument of perigee: | 17.9211° |
revolutions per day: | 15.64152034 |
mean anomaly at epoch: | 342.2252° |
orbit number at epoch: | 4352 |
The dashed part of the orbit path shows where the satellite is in the earth's shadow,
|
|